Knoxville, IA

2:46 PM CDT on September 19, 2017 (GMT -0500)
Knoxville Municipal

Weather History for KOXV - March, 2013

Change the Weather History Date:

Wednesday, March 13, 2013

  Actual Average Record
Temperature  
Mean Temperature 26 °F -  
Max Temperature 35 °F 45 °F 77 °F (2007)
Min Temperature 17 °F 27 °F 2 °F (1975)
Degree Days  
Heating Degree Days 39    
Moisture  
Dew Point 15 °F    
Average Humidity 62    
Maximum Humidity 80    
Minimum Humidity 44    
Precipitation  
Precipitation 0.00 in - - ()
Sea Level Pressure  
Sea Level Pressure 30.35 in    
Wind  
Wind Speed 12 mph (WNW)    
Max Wind Speed 21 mph    
Max Gust Speed 29 mph    
Visibility 10 miles    
Events      
Averages and records for this station are not official NWS values.
T = Trace of Precipitation, MM = Missing Value Source: NWS Daily Summary

Daily Weather History Graph

Daily Weather History Graph

Search for Another Location

Airport or City:

Trip Planner

Search our weather history database for the weather conditions in past years. The results will help you decide how hot, cold, wet, or windy it might be!

Date:

Astronomy

Mar. 13, 2013 Rise Set
Actual Time 7:27 AM CDT 7:17 PM CDT
Civil Twilight 6:59 AM CDT 7:44 PM CDT
Nautical Twilight 6:27 AM CDT 8:16 PM CDT
Astronomical Twilight 5:55 AM CDT 8:49 PM CDT
Moon 8:05 AM CDT (3/13) 9:36 PM CDT (3/13)
Length of Visible Light 12h 45m
Length of Day
11h 50m
Waxing Crescent, 4% of the Moon is Illuminated
Mar 13
Waxing Crescent
Mar 19
First Quarter
Mar 27
Full
Apr 2
Last Quarter
Apr 10
New

Hourly Weather History & Observations

Time (CDT) Temp. Windchill Dew Point Humidity Pressure Visibility Wind Dir Wind Speed Gust Speed Precip Events Conditions
12:55 AM 24.8 °F 10.3 °F 15.8 °F 69% 30.23 in 10.0 mi NW 20.7 mph 28.8 mph N/A   Mostly Cloudy
1:15 AM 24.8 °F 10.7 °F 15.8 °F 69% 30.24 in 10.0 mi NW 19.6 mph 28.8 mph N/A   Overcast
1:35 AM 24.8 °F 11.9 °F 15.8 °F 69% 30.25 in 10.0 mi NW 16.1 mph 23.0 mph N/A   Overcast
1:55 AM 23.0 °F 9.6 °F 14.0 °F 68% 30.26 in 10.0 mi NW 16.1 mph 23.0 mph N/A   Scattered Clouds
2:15 AM 21.2 °F 7.3 °F 14.0 °F 74% 30.26 in 10.0 mi NW 16.1 mph 21.9 mph N/A   Clear
2:35 AM 21.2 °F 8.9 °F 14.0 °F 74% 30.26 in 10.0 mi NW 12.7 mph - N/A   Clear
2:55 AM 21.2 °F 7.8 °F 14.0 °F 74% 30.27 in 10.0 mi NW 15.0 mph - N/A   Clear
3:15 AM 21.2 °F 7.3 °F 14.0 °F 74% 30.27 in 10.0 mi NW 16.1 mph 21.9 mph N/A   Clear
3:55 AM 21.2 °F 7.3 °F 14.0 °F 74% 30.28 in 10.0 mi NW 16.1 mph 20.7 mph N/A   Clear
4:15 AM 21.2 °F 8.3 °F 14.0 °F 74% 30.29 in 10.0 mi NW 13.8 mph - N/A   Clear
4:35 AM 19.4 °F 5.5 °F 14.0 °F 80% 30.29 in 10.0 mi NW 15.0 mph - N/A   Clear
5:15 AM 19.4 °F 6.6 °F 12.2 °F 74% 30.30 in 10.0 mi NW 12.7 mph - N/A   Clear
5:35 AM 19.4 °F 7.2 °F 12.2 °F 74% 30.31 in 10.0 mi NW 11.5 mph - N/A   Clear
5:55 AM 19.4 °F 7.2 °F 12.2 °F 74% 30.32 in 10.0 mi NW 11.5 mph - N/A   Clear
6:15 AM 19.4 °F 6.6 °F 12.2 °F 74% 30.33 in 10.0 mi NW 12.7 mph - N/A   Clear
6:35 AM 19.4 °F 7.2 °F 12.2 °F 74% 30.33 in 10.0 mi NW 11.5 mph - N/A   Clear
6:55 AM 19.4 °F 7.9 °F 12.2 °F 74% 30.34 in 10.0 mi NW 10.4 mph 16.1 mph N/A   Clear
7:15 AM 19.4 °F 5.5 °F 12.2 °F 74% 30.34 in 10.0 mi NW 15.0 mph - N/A   Clear
7:35 AM 17.6 °F 5.0 °F 12.2 °F 79% 30.34 in 10.0 mi NW 11.5 mph - N/A   Clear
7:55 AM 19.4 °F 7.2 °F 12.2 °F 74% 30.35 in 10.0 mi NW 11.5 mph - N/A   Clear
8:15 AM 19.4 °F 6.0 °F 12.2 °F 74% 30.36 in 10.0 mi NW 13.8 mph - N/A   Clear
8:35 AM 19.4 °F 7.2 °F 12.2 °F 74% 30.36 in 10.0 mi NW 11.5 mph 19.6 mph N/A   Clear
8:55 AM 21.2 °F 10.1 °F 14.0 °F 74% 30.37 in 10.0 mi NW 10.4 mph - N/A   Clear
9:15 AM 21.2 °F 8.9 °F 14.0 °F 74% 30.38 in 10.0 mi NNW 12.7 mph - N/A   Clear
9:35 AM 23.0 °F 12.4 °F 14.0 °F 68% 30.39 in 10.0 mi NNW 10.4 mph - N/A   Clear
9:55 AM 24.8 °F 15.3 °F 15.8 °F 69% 30.40 in 10.0 mi NNW 9.2 mph - N/A   Clear
10:15 AM 24.8 °F 16.9 °F 15.8 °F 69% 30.41 in 10.0 mi NW 6.9 mph - N/A   Clear
10:35 AM 26.6 °F 17.5 °F 15.8 °F 64% 30.41 in 10.0 mi NNW 9.2 mph - N/A   Clear
10:55 AM 26.6 °F 18.2 °F 15.8 °F 64% 30.42 in 10.0 mi NW 8.1 mph - N/A   Clear
11:15 AM 26.6 °F 16.2 °F 15.8 °F 64% 30.42 in 10.0 mi WNW 11.5 mph 17.3 mph N/A   Clear
11:35 AM 28.4 °F 19.1 °F 17.6 °F 64% 30.43 in 10.0 mi WNW 10.4 mph - N/A   Clear
11:55 AM 28.4 °F 19.1 °F 15.8 °F 59% 30.43 in 10.0 mi WNW 10.4 mph - N/A   Clear
12:15 PM 30.2 °F 21.9 °F 15.8 °F 55% 30.43 in 10.0 mi NW 9.2 mph - N/A   Clear
12:35 PM 30.2 °F 21.9 °F 15.8 °F 55% 30.43 in 10.0 mi WNW 9.2 mph - N/A   Clear
12:55 PM 30.2 °F 21.9 °F 14.0 °F 51% 30.43 in 10.0 mi NNW 9.2 mph - N/A   Clear
1:15 PM 30.2 °F 23.4 °F 15.8 °F 55% 30.43 in 10.0 mi West 6.9 mph - N/A   Clear
1:35 PM 32.0 °F 26.4 °F 14.0 °F 48% 30.43 in 10.0 mi NW 5.8 mph 17.3 mph N/A   Clear
1:55 PM 32.0 °F 25.6 °F 15.8 °F 51% 30.43 in 10.0 mi WNW 6.9 mph - N/A   Clear
2:15 PM 33.8 °F 27.7 °F 15.8 °F 48% 30.42 in 10.0 mi West 6.9 mph - N/A   Clear
2:35 PM 33.8 °F 27.7 °F 17.6 °F 52% 30.41 in 10.0 mi WNW 6.9 mph - N/A   Clear
2:55 PM 33.8 °F 30.8 °F 15.8 °F 48% 30.40 in 10.0 mi WSW 3.5 mph - N/A   Clear
3:15 PM 35.6 °F 28.6 °F 17.6 °F 48% 30.40 in 10.0 mi West 9.2 mph - N/A   Clear
3:35 PM 35.6 °F 29.2 °F 15.8 °F 44% 30.39 in 10.0 mi WNW 8.1 mph - N/A   Clear
3:55 PM 35.6 °F 29.2 °F 17.6 °F 48% 30.39 in 10.0 mi West 8.1 mph - N/A   Clear
4:15 PM 35.6 °F 31.7 °F 17.6 °F 48% 30.38 in 10.0 mi West 4.6 mph - N/A   Clear
4:35 PM 35.6 °F 31.7 °F 17.6 °F 48% 30.39 in 10.0 mi West 4.6 mph - N/A   Clear
4:55 PM 35.6 °F 31.7 °F 15.8 °F 44% 30.38 in 10.0 mi West 4.6 mph - N/A   Clear
5:15 PM 35.6 °F 30.7 °F 15.8 °F 44% 30.38 in 10.0 mi SW 5.8 mph - N/A   Clear
5:35 PM 35.6 °F 32.8 °F 15.8 °F 44% 30.37 in 10.0 mi West 3.5 mph - N/A   Clear
5:55 PM 35.6 °F 31.7 °F 15.8 °F 44% 30.37 in 10.0 mi West 4.6 mph - N/A   Clear
6:15 PM 35.6 °F 30.7 °F 15.8 °F 44% 30.37 in 10.0 mi West 5.8 mph - N/A   Clear
6:35 PM 33.8 °F 29.6 °F 17.6 °F 52% 30.37 in 10.0 mi NW 4.6 mph - N/A   Clear
6:55 PM 33.8 °F - 17.6 °F 52% 30.36 in 10.0 mi Calm Calm - N/A   Clear
7:15 PM 32.0 °F - 17.6 °F 55% 30.36 in 10.0 mi Calm Calm - N/A   Clear
7:35 PM 32.0 °F - 15.8 °F 51% 30.35 in 10.0 mi Calm Calm - N/A   Clear
7:55 PM 30.2 °F - 17.6 °F 60% 30.35 in 10.0 mi Calm Calm - N/A   Clear
8:15 PM 30.2 °F - 17.6 °F 60% 30.35 in 10.0 mi Calm Calm - N/A   Clear
8:35 PM 30.2 °F - 17.6 °F 60% 30.35 in 10.0 mi Calm Calm - N/A   Clear
8:55 PM 28.4 °F - 17.6 °F 64% 30.35 in 10.0 mi Calm Calm - N/A   Clear
9:15 PM 28.4 °F - 17.6 °F 64% 30.34 in 10.0 mi Calm Calm - N/A   Clear
9:35 PM 28.4 °F - 17.6 °F 64% 30.35 in 10.0 mi Calm Calm - N/A   Clear
9:55 PM 28.4 °F 24.6 °F 17.6 °F 64% 30.34 in 10.0 mi East 3.5 mph - N/A   Clear
10:15 PM 28.4 °F - 17.6 °F 64% 30.34 in 10.0 mi Calm Calm - N/A   Clear
10:35 PM 28.4 °F 24.6 °F 17.6 °F 64% 30.34 in 10.0 mi ESE 3.5 mph - N/A   Clear
10:55 PM 28.4 °F 22.2 °F 17.6 °F 64% 30.33 in 10.0 mi SE 5.8 mph - N/A   Clear
11:15 PM 28.4 °F 24.6 °F 17.6 °F 64% 30.33 in 10.0 mi SE 3.5 mph - N/A   Clear
11:35 PM 28.4 °F 22.2 °F 17.6 °F 64% 30.32 in 10.0 mi SE 5.8 mph - N/A   Clear
11:55 PM 28.4 °F 23.3 °F 17.6 °F 64% 30.31 in 10.0 mi SE 4.6 mph - N/A   Clear